Weather History for Lawrence, MA

Change the Weather History Date:

Sunday, January 13, 2013

  Actual Average Record
Temperature  
Mean Temperature 47 °F -  
Max Temperature 52 °F 32 °F 63 °F (1932)
Min Temperature 42 °F 11 °F -8 °F (1981)
Degree Days  
Heating Degree Days 18    
Moisture  
Dew Point 43 °F    
Average Humidity 88    
Maximum Humidity 93    
Minimum Humidity 82    
Precipitation  
Precipitation 0.00 in - - ()
Sea Level Pressure  
Sea Level Pressure 30.10 in    
Wind  
Wind Speed 4 mph (SSW)    
Max Wind Speed 13 mph    
Max Gust Speed -    
Visibility 4 miles    
Events Fog    
Averages and records for this station are not official NWS values.
T = Trace of Precipitation, MM = Missing Value Source: NWS Daily Summary

Daily Weather History Graph

Daily Weather History Graph

Search for Another Location

Airport:

Trip Planner

Search our weather history database for the weather conditions in past years. The results will help you decide how hot, cold, wet, or windy it might be!

Date:

Astronomy

Jan. 13, 2013 Rise Set
Actual Time 7:12 AM EST 4:34 PM EST
Civil Twilight 6:41 AM EST 5:05 PM EST
Nautical Twilight 6:06 AM EST 5:40 PM EST
Astronomical Twilight 5:32 AM EST 6:14 PM EST
Moon 8:05 AM EST (1/13) 7:13 PM EST (1/13)
Length of Visible Light 10h 23m
Length of Day
9h 21m
Waxing Crescent, 5% of the Moon is Illuminated
Jan 13
Waxing Crescent
Jan 18
First Quarter
Jan 26
Full
Feb 3
Last Quarter
Feb 10
New

Hourly Weather History & Observations

Time (EST) Temp. Windchill Dew Point Humidity Pressure Visibility Wind Dir Wind Speed Gust Speed Precip Events Conditions
12:54 AM 43.0 °F 40.3 °F 39.9 °F 89% 30.14 in 0.5 mi SSW 4.6 mph - N/A Fog Fog
1:49 AM 42.8 °F 41.1 °F 39.2 °F 87% 30.15 in 0.8 mi SSW 3.5 mph - N/A   Mist
1:54 AM 42.1 °F 40.2 °F 39.9 °F 92% 30.16 in 0.8 mi South 3.5 mph - N/A   Mist
2:17 AM 42.8 °F 39.3 °F 39.2 °F 87% 30.15 in 0.5 mi SSW 5.8 mph - N/A Fog Fog
2:51 AM 42.8 °F 41.1 °F 39.2 °F 87% 30.14 in 1.0 mi SSW 3.5 mph - N/A   Mist
2:54 AM 42.1 °F 39.2 °F 39.9 °F 92% 30.14 in 1.0 mi SSW 4.6 mph - N/A   Mist
3:10 AM 42.8 °F 39.3 °F 39.2 °F 87% 30.14 in 2.5 mi SSW 5.8 mph - N/A   Overcast
3:25 AM 42.8 °F 39.3 °F 39.2 °F 87% 30.14 in 1.5 mi SSW 5.8 mph - N/A   Overcast
3:54 AM 42.1 °F 39.2 °F 39.9 °F 92% 30.13 in 2.0 mi SSW 4.6 mph - N/A   Overcast
4:54 AM 43.0 °F - 39.9 °F 89% 30.13 in 4.0 mi Calm Calm - N/A   Overcast
5:18 AM 42.8 °F - 39.2 °F 87% 30.12 in 1.8 mi Calm Calm - N/A   Overcast
5:42 AM 42.8 °F - 39.2 °F 87% 30.13 in 0.8 mi Calm Calm - N/A   Mist
5:52 AM 42.8 °F - 39.2 °F 87% 30.12 in 0.5 mi Calm Calm - N/A Fog Fog
5:54 AM 42.1 °F - 39.9 °F 92% 30.12 in 0.5 mi Calm Calm - N/A Fog Fog
6:08 AM 42.8 °F - 39.2 °F 87% 30.12 in 0.8 mi Calm Calm - N/A   Overcast
6:33 AM 42.8 °F - 39.2 °F 87% 30.12 in 1.2 mi Calm Calm - N/A   Overcast
6:54 AM 43.0 °F - 39.9 °F 89% 30.13 in 1.2 mi Calm Calm - N/A   Overcast
7:27 AM 42.8 °F - 41.0 °F 93% 30.14 in 0.5 mi Calm Calm - N/A Fog Fog
7:54 AM 43.0 °F - 41.0 °F 93% 30.14 in 0.2 mi Calm Calm - N/A Fog Fog
7:59 AM 44.6 °F 43.1 °F 41.0 °F 87% 30.15 in 1.0 mi SSW 3.5 mph - N/A   Mist
8:36 AM 44.6 °F 42.2 °F 41.0 °F 87% 30.15 in 0.8 mi South 4.6 mph - N/A   Overcast
8:46 AM 44.6 °F 41.4 °F 41.0 °F 87% 30.16 in 1.2 mi SW 5.8 mph - N/A   Overcast
8:54 AM 44.1 °F 42.5 °F 42.1 °F 93% 30.17 in 1.0 mi SSW 3.5 mph - N/A   Overcast
9:33 AM 44.6 °F 42.2 °F 42.8 °F 93% 30.15 in 3.0 mi SSW 4.6 mph - N/A   Overcast
9:54 AM 45.0 °F 43.5 °F 43.0 °F 93% 30.16 in 2.5 mi SSW 3.5 mph - N/A   Overcast
10:39 AM 46.4 °F 42.4 °F 42.8 °F 87% 30.15 in 1.8 mi SW 8.1 mph - N/A   Overcast
10:54 AM 46.0 °F 43.9 °F 43.0 °F 89% 30.15 in 1.8 mi SW 4.6 mph - N/A   Overcast
11:03 AM 46.4 °F 44.3 °F 44.6 °F 93% 30.14 in 2.5 mi SW 4.6 mph - N/A   Overcast
11:28 AM 46.4 °F 44.3 °F 44.6 °F 93% 30.13 in 3.0 mi SW 4.6 mph - N/A   Overcast
11:54 AM 48.0 °F - 45.0 °F 89% 30.12 in 4.0 mi SSW 3.5 mph - N/A   Overcast
12:54 PM 48.9 °F - 45.0 °F 86% 30.09 in 10.0 mi SW 10.4 mph - N/A   Overcast
1:54 PM 50.0 °F - 46.0 °F 86% 30.09 in 7.0 mi SW 9.2 mph - N/A   Overcast
2:54 PM 50.0 °F - 46.0 °F 86% 30.07 in 5.0 mi Calm Calm - N/A   Overcast
3:54 PM 51.1 °F - 46.9 °F 86% 30.05 in 5.0 mi Calm Calm - N/A   Overcast
4:31 PM 51.8 °F - 46.4 °F 82% 30.04 in 5.0 mi South 3.5 mph - N/A   Overcast
4:54 PM 51.1 °F - 46.9 °F 86% 30.03 in 8.0 mi South 8.1 mph - N/A   Overcast
5:54 PM 51.1 °F - 46.9 °F 86% 30.02 in 9.0 mi SW 3.5 mph - N/A   Overcast
6:28 PM 51.8 °F - 46.4 °F 82% 30.01 in 9.0 mi SSW 5.8 mph - N/A   Scattered Clouds
6:54 PM 50.0 °F - 46.9 °F 89% 30.02 in 8.0 mi SW 5.8 mph - N/A   Partly Cloudy
7:06 PM 51.8 °F - 46.4 °F 82% 30.02 in 9.0 mi WSW 5.8 mph - N/A   Mostly Cloudy
7:23 PM 51.8 °F - 46.4 °F 82% 30.02 in 10.0 mi SW 6.9 mph - N/A   Overcast
7:54 PM 51.1 °F - 46.9 °F 86% 30.03 in 10.0 mi SW 9.2 mph - N/A   Overcast
8:54 PM 51.1 °F - 46.0 °F 83% 30.01 in 10.0 mi SSW 12.7 mph - N/A   Overcast
9:54 PM 52.0 °F - 46.9 °F 83% 30.01 in 10.0 mi SW 8.1 mph - N/A   Overcast
10:26 PM 51.8 °F - 46.4 °F 82% 30.00 in 10.0 mi SSW 6.9 mph - N/A   Overcast
10:54 PM 52.0 °F - 46.9 °F 83% 29.99 in 10.0 mi SSW 5.8 mph - N/A   Overcast
11:54 PM 52.0 °F - 46.9 °F 83% 30.00 in 10.0 mi SW 6.9 mph - N/A   Overcast